When you browse on this site, cookies collect data to enhance your experience and personalize the content and advertising you see.
Visit our Privacy Policy to learn more. By continuing to use the site, you agree to this use of cookies and data.
  • In Switzerland
  • List of Countries
  • For 7 days
  • Water Temperature
  • Weather Map
  • Weather Widgets
  • user-avatar
    Login

    Hourly Weather Exeter

    Today, 30 May, Saturday

    Time Temperature Precipitation Wind Pressure Humidity
    00:00 +10°C° 0 mm 3 mps 760 mmHg 87%
    01:00 +9°C° 0 mm 3 mps 759 mmHg 85%
    02:00 +9°C° 0 mm 3 mps 759 mmHg 83%
    03:00 +8°C° 0 mm 3 mps 759 mmHg 81%
    04:00 +9°C° 0 mm 3 mps 759 mmHg 80%
    05:00 +9°C° 0 mm 3 mps 759 mmHg 78%
    06:00 +10°C° 0 mm 3 mps 759 mmHg 76%
    07:00 +12°C° 0 mm 3 mps 759 mmHg 75%
    08:00 +13°C° 0 mm 3 mps 759 mmHg 74%
    09:00 +16°C° 0 mm 3 mps 759 mmHg 73%
    10:00 +17°C° 0 mm 4 mps 759 mmHg 71%
    11:00 +18°C° 0 mm 4 mps 759 mmHg 70%
    12:00 +19°C° 0 mm 4 mps 759 mmHg 68%
    13:00 +19°C° 0 mm 4 mps 759 mmHg 67%
    14:00 +19°C° 0 mm 4 mps 758 mmHg 66%
    15:00 +19°C° 0 mm 5 mps 758 mmHg 65%
    16:00 +19°C° 0 mm 4 mps 758 mmHg 67%
    17:00 +18°C° 0 mm 3 mps 758 mmHg 69%
    18:00 +18°C° 0 mm 3 mps 757 mmHg 71%
    19:00 +16°C° 0 mm 3 mps 758 mmHg 74%
    20:00 +14°C° 0 mm 2 mps 758 mmHg 78%
    21:00 +13°C° 0 mm 2 mps 758 mmHg 82%
    22:00 +11°C° 0 mm 3 mps 758 mmHg 84%
    23:00 +11°C° 0 mm 3 mps 758 mmHg 86%

    Tomorrow, 31 May, Sunday

    Time Temperature Precipitation Wind Pressure Humidity
    00:00 +11°C° 0 mm 3 mps 758 mmHg 88%
    01:00 +10°C° 0 mm 3 mps 758 mmHg 89%
    02:00 +10°C° 0 mm 3 mps 758 mmHg 90%
    03:00 +9°C° 0 mm 3 mps 758 mmHg 91%
    04:00 +10°C° 0 mm 3 mps 758 mmHg 90%
    05:00 +11°C° 0 mm 3 mps 758 mmHg 89%
    06:00 +11°C° 0 mm 3 mps 758 mmHg 88%
    07:00 +13°C° 0 mm 4 mps 758 mmHg 83%
    08:00 +15°C° 0 mm 5 mps 759 mmHg 77%
    09:00 +17°C° 0 mm 6 mps 759 mmHg 72%
    10:00 +17°C° 0 mm 6 mps 759 mmHg 69%
    11:00 +18°C° 0 mm 7 mps 759 mmHg 67%
    12:00 +18°C° 0 mm 7 mps 759 mmHg 64%
    13:00 +18°C° 0 mm 7 mps 759 mmHg 62%
    14:00 +18°C° 0 mm 7 mps 759 mmHg 61%
    15:00 +18°C° 0 mm 7 mps 759 mmHg 59%
    16:00 +19°C° 0 mm 6 mps 759 mmHg 63%
    17:00 +17°C° 0 mm 5 mps 759 mmHg 66%
    18:00 +18°C° 0 mm 4 mps 758 mmHg 70%
    19:00 +15°C° 0 mm 4 mps 759 mmHg 74%
    20:00 +14°C° 0 mm 3 mps 759 mmHg 78%
    21:00 +13°C° 0 mm 3 mps 759 mmHg 82%
    22:00 +12°C° 0 mm 4 mps 759 mmHg 83%
    23:00 +11°C° 0 mm 4 mps 759 mmHg 83%

    Day after tomorrow, 1 June, Monday

    Time Temperature Precipitation Wind Pressure Humidity
    00:00 +10°C° 0 mm 4 mps 759 mmHg 84%
    01:00 +10°C° 0 mm 4 mps 759 mmHg 85%
    02:00 +8°C° 0 mm 4 mps 759 mmHg 86%
    03:00 +8°C° 0 mm 4 mps 759 mmHg 88%
    04:00 +10°C° 0 mm 4 mps 759 mmHg 87%
    05:00 +10°C° 0 mm 4 mps 759 mmHg 86%
    06:00 +11°C° 0 mm 4 mps 759 mmHg 85%
    07:00 +13°C° 0 mm 5 mps 759 mmHg 81%
    08:00 +14°C° 0 mm 5 mps 760 mmHg 77%
    09:00 +16°C° 0 mm 6 mps 760 mmHg 74%
    10:00 +17°C° 0 mm 5 mps 760 mmHg 71%
    11:00 +19°C° 0 mm 5 mps 760 mmHg 68%
    12:00 +20°C° 0 mm 5 mps 760 mmHg 65%
    13:00 +20°C° 0 mm 5 mps 760 mmHg 67%
    14:00 +20°C° 0 mm 4 mps 760 mmHg 68%
    15:00 +20°C° 0 mm 3 mps 759 mmHg 70%
    16:00 +19°C° 0 mm 3 mps 759 mmHg 72%
    17:00 +19°C° 0 mm 2 mps 759 mmHg 74%
    18:00 +18°C° 0 mm 2 mps 759 mmHg 75%
    19:00 +17°C° 0 mm 2 mps 759 mmHg 80%
    20:00 +16°C° 0 mm 1 mps 759 mmHg 84%
    21:00 +14°C° 0 mm 1 mps 759 mmHg 89%
    22:00 +14°C° 0 mm 2 mps 759 mmHg 89%
    23:00 +13°C° 0 mm 2 mps 759 mmHg 90%

    2 June, Tuesday

    Time Temperature Precipitation Wind Pressure Humidity
    00:00 +12°C° 0 mm 2 mps 759 mmHg 90%
    01:00 +12°C° 0 mm 2 mps 759 mmHg 90%
    02:00 +10°C° 0 mm 2 mps 759 mmHg 91%
    03:00 +10°C° 0 mm 2 mps 758 mmHg 91%
    04:00 +10°C° 0 mm 2 mps 758 mmHg 90%
    05:00 +10°C° 0 mm 2 mps 758 mmHg 89%
    06:00 +11°C° 0 mm 3 mps 758 mmHg 88%
    07:00 +12°C° 0 mm 3 mps 758 mmHg 81%
    08:00 +14°C° 0 mm 3 mps 758 mmHg 74%
    09:00 +16°C° 0 mm 3 mps 758 mmHg 67%
    10:00 +17°C° 0 mm 3 mps 758 mmHg 63%
    11:00 +18°C° 0 mm 3 mps 757 mmHg 59%
    12:00 +19°C° 0 mm 3 mps 757 mmHg 55%
    13:00 +19°C° 0 mm 3 mps 756 mmHg 54%
    14:00 +20°C° 0 mm 2 mps 756 mmHg 54%
    15:00 +20°C° 0 mm 2 mps 756 mmHg 54%
    16:00 +19°C° 0 mm 2 mps 755 mmHg 59%
    17:00 +19°C° 0 mm 3 mps 754 mmHg 64%
    18:00 +18°C° 0 mm 3 mps 754 mmHg 69%
    19:00 +16°C° 0 mm 3 mps 753 mmHg 76%
    20:00 +14°C° 0 mm 3 mps 753 mmHg 82%
    21:00 +12°C° 0 mm 3 mps 753 mmHg 88%
    22:00 +12°C° 0 mm 3 mps 752 mmHg 89%
    23:00 +11°C° 0 mm 3 mps 752 mmHg 91%

    3 June, Wednesday

    Time Temperature Precipitation Wind Pressure Humidity
    00:00 +11°C° 0 mm 3 mps 751 mmHg 92%
    01:00 +11°C° 0 mm 3 mps 751 mmHg 92%
    02:00 +10°C° 0 mm 3 mps 750 mmHg 92%
    03:00 +10°C° 0 mm 3 mps 750 mmHg 92%
    04:00 +11°C° 0.4 mm 3 mps 749 mmHg 93%
    05:00 +11°C° 0.4 mm 3 mps 749 mmHg 93%
    06:00 +11°C° 0.4 mm 3 mps 749 mmHg 93%
    07:00 +12°C° 0.5 mm 4 mps 749 mmHg 93%
    08:00 +12°C° 0.5 mm 4 mps 749 mmHg 93%
    09:00 +13°C° 0.5 mm 5 mps 749 mmHg 94%
    10:00 +13°C° 0.3 mm 5 mps 749 mmHg 91%
    11:00 +14°C° 0.3 mm 6 mps 749 mmHg 88%
    12:00 +15°C° 0.3 mm 6 mps 748 mmHg 86%
    13:00 +14°C° 0.8 mm 6 mps 748 mmHg 85%
    14:00 +14°C° 0.8 mm 6 mps 748 mmHg 84%
    15:00 +14°C° 0.8 mm 6 mps 748 mmHg 84%
    16:00 +15°C° 0.2 mm 6 mps 748 mmHg 82%
    17:00 +15°C° 0.2 mm 7 mps 748 mmHg 81%
    18:00 +15°C° 0.2 mm 7 mps 748 mmHg 79%
    19:00 +14°C° 0 mm 7 mps 748 mmHg 81%
    20:00 +12°C° 0 mm 7 mps 749 mmHg 82%
    21:00 +10°C° 0 mm 7 mps 749 mmHg 84%
    22:00 +10°C° 0 mm 7 mps 749 mmHg 83%
    23:00 +9°C° 0 mm 7 mps 749 mmHg 82%

    4 June, Thursday

    Time Temperature Precipitation Wind Pressure Humidity
    00:00 +9°C° 0 mm 7 mps 748 mmHg 82%
    01:00 +8°C° 0 mm 7 mps 748 mmHg 82%
    02:00 +8°C° 0 mm 7 mps 748 mmHg 82%
    03:00 +6°C° 0 mm 7 mps 747 mmHg 82%
    04:00 +6°C° 0 mm 7 mps 747 mmHg 81%
    05:00 +6°C° 0 mm 7 mps 747 mmHg 81%
    06:00 +6°C° 0 mm 7 mps 747 mmHg 80%
    07:00 +8°C° 0 mm 7 mps 747 mmHg 77%
    08:00 +9°C° 0 mm 7 mps 747 mmHg 73%
    09:00 +10°C° 0 mm 6 mps 746 mmHg 70%
    10:00 +11°C° 0 mm 6 mps 746 mmHg 66%
    11:00 +13°C° 0 mm 6 mps 746 mmHg 63%
    12:00 +14°C° 0 mm 5 mps 745 mmHg 59%
    13:00 +14°C° 0 mm 5 mps 745 mmHg 61%
    14:00 +14°C° 0 mm 6 mps 744 mmHg 63%
    15:00 +14°C° 0 mm 6 mps 744 mmHg 65%
    16:00 +13°C° 0.2 mm 6 mps 743 mmHg 72%
    17:00 +10°C° 0.2 mm 6 mps 743 mmHg 79%
    18:00 +8°C° 0.2 mm 6 mps 742 mmHg 87%
    19:00 +8°C° 0.3 mm 4 mps 742 mmHg 89%
    20:00 +8°C° 0.3 mm 3 mps 742 mmHg 92%
    21:00 +8°C° 0.3 mm 2 mps 742 mmHg 95%
    22:00 +8°C° 0.7 mm 3 mps 741 mmHg 95%
    23:00 +7°C° 0.7 mm 4 mps 741 mmHg 95%
    Show more